Location: Lafig�re
(44.4503°N, 4.0357°E)
Time: 14:21:11
(UTC+00:00)

Transit 2A Rocket - Pass Details

Date: 24 January 2021
Orbit: 594 x 908 km, 66.7° (Epoch: 06 March)

Event Time Altitude Azimuth Distance (km) Brightness Sun altitude
Rises 14:22:43 0° 279° (W) 3,223 8.6 18.2°
Reaches altitude 10° 14:28:02 10° 324° (NW) 2,191 7.3 17.6°
Maximum altitude 14:28:27 10° 329° (NNW) 2,177 7.2 17.6°
Drops below altitude 10° 14:28:52 10° 334° (NNW) 2,175 7.2 17.6°
Sets 14:33:53 0° 20° (NNE) 2,995 7.5 17.0°
